This demonstration page uses our WeatherBlox Daily Observations layout. Learn more.

Left ArrowRight Arrow

39.12711, -84.51439

Hourly Observations for October 15, 2020

Temp ( °F °C ) Dew Point ( °F °C ) Humidity (%) Winds ( mph kmh ) Pressure ( in mb ) Visibility ( mi km ) Precip ( " mm )
12:53 am 00:53 Clear 61 16.1 47 8.3 60 60 S 9 15 29.79 1009 10 16 0.00 0.00
1:53 am 01:53 Clear 58 14.4 46 7.8 65 65 SSW 8 13 29.80 1009 10 16 0.00 0.00
2:53 am 02:53 Clear 62 16.7 50 10 65 65 SSW 10 17 29.80 1009 10 16 0.00 0.00
3:53 am 03:53 Clear 62 16.7 51 10.6 67 67 SSW 8 13 29.81 1010 10 16 0.00 0.00
4:53 am 04:53 Clear 63 17.2 52 11.1 68 68 SSW 13 20 29.80 1009 10 16 0.00 0.00
5:53 am 05:53 Clear 63 17.2 53 11.7 70 70 SSW 10 17 29.82 1010 10 16 0.00 0.00
6:53 am 06:53 Clear 62 16.7 54 12.2 75 75 SW 9 15 29.84 1011 10 16 0.00 0.00
7:53 am 07:53 Sunny 61 16.1 54 12.2 78 78 SW 7 11 29.85 1011 10 16 0.00 0.00
8:53 am 08:53 Mostly Cloudy 63 17.2 55 12.8 76 76 SW 9 15 29.87 1012 10 16 0.00 0.00
9:53 am 09:53 Cloudy 64 17.8 53 11.7 68 68 WSW 12 19 29.90 1013 10 16 0.00 0.00
10:53 am 10:53 Cloudy 65 18.3 48 8.9 54 54 W 9 15 29.92 1013 10 16 0.00 0.00
11:53 am 11:53 Cloudy 65 18.3 44 6.7 47 47 NW 8 13 29.95 1014 10 16 0.00 0.00
12:53 pm 12:53 Cloudy 62 16.7 42 5.6 48 48 NNW 17 28 29.98 1015 10 16 0.00 0.00
1:53 pm 13:53 Cloudy with Light Rain 56 13.3 45 7.2 67 67 NW 10 17 29.98 1015 10 16 0.00 0.00
2:53 pm 14:53 Cloudy with Rain 52 11.1 48 8.9 86 86 NNW 8 13 30.02 1017 6 10 0.02 0.51
3:53 pm 15:53 Cloudy with Light Rain 53 11.7 48 8.9 83 83 Calm 30.01 1016 8 13 0.02 0.51
4:53 pm 16:53 Cloudy with Light Rain 53 11.7 49 9.4 86 86 Calm 30.03 1017 7 11 0.01 0.25
5:53 pm 17:53 Cloudy with Light Rain 52 11.1 50 10 93 93 Calm 30.04 1017 8 13 0.01 0.25
6:53 pm 18:53 Cloudy with Light Rain 52 11.1 50 10 93 93 Calm 30.05 1018 7 11 0.01 0.25
7:53 pm 19:53 Cloudy 52 11.1 49 9.4 89 89 Calm 30.06 1018 10 16 0.00 0.00
8:53 pm 20:53 Mostly Cloudy 53 11.7 49 9.4 86 86 NW 6 9 30.09 1019 10 16 0.00 0.00
9:53 pm 21:53 Mostly Cloudy 50 10 44 6.7 80 80 NW 6 9 30.12 1020 10 16 0.00 0.00
10:53 pm 22:53 Clear 50 10 42 5.6 74 74 W 3 6 30.15 1021 10 16 0.00 0.00
11:53 pm 23:53 Clear 49 9.4 42 5.6 77 77 WNW 6 9 30.15 1021 10 16 0.00 0.00

Powered by AerisWeather